WA7ZVY-4 Weather Reports


time (UTC)temp
F
wind
direction
speed
knots
gust
knots
rain 1hr
in
rain 24hr
in
rain mn
in
humidity
%
barometer
mb
20260507112034 52 0 0.0 0.0 0.00 0.00 0.00 92 1019.7
20260507111753 52 0 0.0 0.0 0.00 0.00 0.00 92 1019.8
20260507111527 52 0 0.0 0.0 0.00 0.00 0.00 92 1019.8
20260507111236 52 0 0.0 0.0 0.00 0.00 0.00 92 1019.8
20260507111020 52 0 0.0 0.0 0.00 0.00 0.00 92 1019.8
20260507110719 52 0 0.0 0.0 0.00 0.00 0.00 92 1019.8
20260507110202 52 0 0.0 0.0 0.00 0.00 0.00 92 1019.9
20260507110006 52 0 0.0 0.0 0.00 0.00 0.00 92 1019.8
20260507105645 52 0 0.0 0.0 0.00 0.00 0.00 92 1019.8
20260507105500 52 0 0.0 0.0 0.00 0.00 0.00 92 1019.8
20260507105129 52 0 0.0 0.0 0.00 0.00 0.00 92 1019.8
20260507104952 52 0 0.0 0.0 0.00 0.00 0.00 92 1019.8
20260507104611 52 0 0.0 0.0 0.00 0.00 0.00 92 1019.9
20260507104445 52 0 0.0 0.0 0.00 0.00 0.00 92 1019.9
20260507104054 52 0 0.0 0.0 0.00 0.00 0.00 92 1019.9
20260507103537 52 0 0.0 0.0 0.00 0.00 0.00 92 1019.9
20260507103431 52 0 0.0 0.0 0.00 0.00 0.00 92 1019.9
20260507103020 52 0 0.0 0.0 0.00 0.00 0.00 92 1019.9
20260507102924 52 0 0.0 0.0 0.00 0.00 0.00 92 1019.9
20260507102505 52 0 0.0 0.0 0.00 0.00 0.00 92 1020.0
20260507101946 52 0 0.0 0.0 0.00 0.00 0.00 92 1020.0
20260507101910 52 0 0.0 0.0 0.00 0.00 0.00 92 1020.0
20260507101429 52 0 0.0 0.0 0.00 0.00 0.00 91 1020.0
20260507101403 52 0 0.0 0.0 0.00 0.00 0.00 92 1020.0
20260507100912 53 0 0.0 0.0 0.00 0.00 0.00 92 1020.0
20260507100856 52 0 0.0 0.0 0.00 0.00 0.00 92 1020.0
20260507100349 52 0 0.0 0.0 0.00 0.00 0.00 92 1020.1
20260507095838 53 0 0.0 0.0 0.00 0.00 0.00 92 1020.1
20260507095335 52 0 0.0 0.0 0.00 0.00 0.00 92 1020.1
20260507095321 52 0 0.0 0.0 0.00 0.00 0.00 92 1020.1
20260507094828 53 0 0.0 0.0 0.00 0.00 0.00 92 1020.1
20260507094804 53 0 0.0 0.0 0.00 0.00 0.00 92 1020.1
20260507094321 53 0 0.0 0.0 0.00 0.00 0.00 92 1020.1
20260507093814 53 0 0.0 0.0 0.00 0.00 0.00 92 1020.1
20260507093730 53 0 0.0 0.0 0.00 0.00 0.00 92 1020.1
20260507093307 53 0 0.0 0.0 0.00 0.00 0.00 92 1020.2
20260507093213 53 0 0.0 0.0 0.00 0.00 0.00 92 1020.2
20260507092800 53 0 0.0 2.6 0.00 0.00 0.00 92 1020.3
20260507092656 53 0 0.0 2.6 0.00 0.00 0.00 92 1020.3
20260507092253 53 0 0.0 2.6 0.00 0.00 0.00 92 1020.3
20260507092139 53 0 0.0 2.6 0.00 0.00 0.00 92 1020.3
20260507091746 53 0 0.0 2.6 0.00 0.00 0.00 92 1020.4
20260507091622 53 0 0.0 2.6 0.00 0.00 0.00 92 1020.4
20260507091239 53 40 0.9 2.6 0.00 0.00 0.00 92 1020.4
20260507091105 52 0 0.0 0.0 0.00 0.00 0.00 92 1020.4
20260507090732 52 0 0.0 8.7 0.00 0.00 0.00 92 1020.4
20260507090548 52 0 0.0 8.7 0.00 0.00 0.00 92 1020.4
20260507090225 52 30 3.5 8.7 0.00 0.00 0.00 92 1020.6
20260507090031 52 30 3.5 8.7 0.00 0.00 0.00 92 1020.6
20260507085718 52 15 3.5 8.7 0.00 0.00 0.00 92 1020.6
20260507085211 52 7 4.3 8.7 0.00 0.00 0.00 92 1020.6
20260507084957 52 7 3.5 5.2 0.00 0.00 0.00 92 1020.6
20260507084704 52 39 1.7 3.5 0.00 0.00 0.00 92 1020.6
20260507084441 52 39 1.7 7.0 0.00 0.00 0.00 92 1020.6
20260507084157 52 26 4.3 7.0 0.00 0.00 0.00 92 1020.7
20260507083923 53 298 0.9 7.0 0.00 0.00 0.00 92 1020.7
20260507083406 53 357 5.2 7.0 0.00 0.00 0.00 93 1020.6
20260507083143 53 320 2.6 7.0 0.00 0.00 0.00 93 1020.8
20260507082849 53 18 2.6 7.0 0.00 0.00 0.00 93 1020.7
20260507082636 53 0 0.0 6.1 0.00 0.00 0.00 93 1020.7
20260507082332 53 0 0.0 6.1 0.00 0.00 0.00 93 1020.7
20260507082129 53 0 0.0 6.1 0.00 0.00 0.00 93 1020.7
20260507081815 53 0 0.0 6.1 0.00 0.00 0.00 93 1020.7
20260507081622 53 0 0.0 6.1 0.00 0.00 0.00 93 1020.7
20260507081258 53 0 0.0 6.1 0.00 0.00 0.00 93 1020.7
20260507081115 53 15 2.6 6.1 0.00 0.00 0.00 93 1020.7
20260507080741 53 0 0.0 4.3 0.00 0.00 0.00 93 1020.6
20260507080608 53 0 0.0 4.3 0.00 0.00 0.00 93 1020.6
20260507080224 53 2 1.7 4.3 0.00 0.00 0.00 93 1020.6
20260507075707 53 0 0.0 6.1 0.00 0.00 0.00 93 1020.6
20260507075554 53 0 0.0 6.1 0.00 0.00 0.00 93 1020.6
20260507075048 53 0 0.0 6.1 0.00 0.00 0.00 93 1020.6
20260507074633 53 22 2.6 6.1 0.00 0.00 0.00 93 1020.6
20260507074540 53 22 2.6 6.1 0.00 0.00 0.00 93 1020.7
20260507074033 53 0 0.0 3.5 0.00 0.00 0.00 94 1020.6
20260507073559 53 4 1.7 3.5 0.00 0.00 0.00 94 1020.7
20260507073526 53 4 3.5 3.5 0.00 0.00 0.00 94 1020.7
20260507073042 53 0 0.0 0.0 0.00 0.00 0.00 94 1020.7
20260507073019 53 0 0.0 0.0 0.00 0.00 0.00 94 1020.7
20260507072525 53 0 0.0 0.0 0.00 0.00 0.00 94 1020.7
20260507072005 53 0 0.0 0.0 0.00 0.00 0.00 94 1020.7
20260507071458 53 0 0.0 0.0 0.00 0.00 0.00 94 1020.7
20260507071451 53 0 0.0 2.6 0.00 0.00 0.00 94 1020.7
20260507070951 53 0 0.0 2.6 0.00 0.00 0.00 94 1020.6
20260507070934 53 0 0.0 2.6 0.00 0.00 0.00 94 1020.6
20260507070445 53 0 0.0 2.6 0.00 0.00 0.00 95 1020.7
20260507070417 53 0 0.0 2.6 0.00 0.00 0.00 95 1020.7
20260507065937 53 0 0.0 2.6 0.00 0.00 0.00 95 1020.7
20260507065900 53 0 0.0 2.6 0.00 0.00 0.00 95 1020.7
20260507065430 53 0 0.0 0.0 0.00 0.00 0.00 95 1020.6
20260507064923 53 0 0.0 4.3 0.00 0.00 0.00 95 1020.8
20260507064826 53 0 0.0 4.3 0.00 0.00 0.00 95 1020.8
20260507064416 53 15 0.9 4.3 0.00 0.00 0.00 95 1020.8
20260507064309 53 0 0.0 4.3 0.00 0.00 0.00 95 1020.9
20260507063909 53 357 3.5 4.3 0.00 0.00 0.00 95 1020.8
20260507063753 53 0 0.0 4.3 0.00 0.00 0.00 96 1020.9
20260507063402 53 0 0.0 4.3 0.00 0.00 0.00 96 1020.9
20260507063234 53 63 1.7 4.3 0.00 0.00 0.00 96 1020.9
20260507062855 53 0 0.0 0.0 0.00 0.00 0.00 96 1020.9
20260507062718 53 0 0.0 0.0 0.00 0.00 0.00 96 1020.8
20260507062348 53 0 0.0 0.0 0.00 0.00 0.00 96 1020.9
20260507062200 53 0 0.0 0.0 0.00 0.00 0.00 96 1020.8
20260507061841 53 0 0.0 3.5 0.00 0.00 0.00 96 1020.9
20260507061643 53 0 0.0 3.5 0.00 0.00 0.00 96 1020.9
20260507061334 53 0 0.0 3.5 0.00 0.00 0.00 96 1020.9
20260507061127 53 338 0.9 3.5 0.00 0.00 0.00 96 1021.0
20260507060827 53 0 0.0 3.5 0.00 0.00 0.00 96 1020.9
20260507060609 53 0 0.0 3.5 0.00 0.00 0.00 96 1020.9
20260507060320 53 0 0.0 3.5 0.00 0.00 0.00 96 1020.9
20260507060052 53 0 0.0 0.0 0.00 0.00 0.00 96 1020.9
20260507055813 53 0 0.0 0.0 0.00 0.00 0.00 96 1020.9
20260507055535 53 0 0.0 0.0 0.00 0.00 0.00 97 1020.9
20260507055306 53 0 0.0 0.0 0.00 0.00 0.00 97 1020.9
20260507055020 53 0 0.0 0.0 0.00 0.00 0.00 97 1020.9
20260507054758 53 0 0.0 0.0 0.00 0.00 0.00 97 1020.9
20260507054252 53 0 0.0 0.0 0.00 0.00 0.00 97 1020.9
20260507053945 53 0 0.0 0.0 0.00 0.00 0.00 97 1021.0
20260507053745 53 0 0.0 0.0 0.00 0.00 0.00 97 1021.0
20260507053427 53 0 0.0 5.2 0.00 0.00 0.00 97 1021.0
20260507053238 53 0 0.0 5.2 0.00 0.00 0.00 97 1021.0
20260507052910 53 0 0.0 5.2 0.00 0.00 0.00 97 1021.0
20260507052730 53 0 0.0 5.2 0.00 0.00 0.00 97 1021.0
20260507052353 53 0 0.0 5.2 0.00 0.00 0.00 97 1021.0
20260507052224 53 0 0.0 5.2 0.00 0.00 0.00 97 1021.0
20260507051836 53 0 0.0 5.2 0.00 0.00 0.00 97 1021.0
20260507051716 53 340 2.6 5.2 0.00 0.00 0.00 97 1021.0
20260507051319 53 0 0.0 0.0 0.00 0.00 0.00 97 1020.9
20260507051209 53 0 0.0 0.0 0.00 0.00 0.00 97 1021.0
20260507050804 53 0 0.0 0.0 0.00 0.00 0.00 97 1021.0
20260507050702 53 0 0.0 0.0 0.00 0.00 0.00 97 1021.0
20260507050245 53 0 0.0 8.7 0.00 0.00 0.00 97 1021.0
20260507050155 53 0 0.0 8.7 0.00 0.00 0.00 97 1021.0
20260507045729 53 0 0.0 8.7 0.00 0.00 0.00 97 1021.1
20260507045211 53 11 4.3 8.7 0.00 0.00 0.00 97 1021.0
20260507045141 53 11 4.3 8.7 0.00 0.00 0.00 97 1021.0
20260507044655 53 8 0.9 7.8 0.00 0.00 0.00 97 1021.2
20260507044634 53 8 0.9 7.8 0.00 0.00 0.00 97 1021.2
20260507044137 53 0 0.0 7.8 0.00 0.00 0.00 97 1021.1
20260507044128 53 0 0.0 7.8 0.00 0.00 0.00 97 1021.1
20260507043621 54 7 6.1 7.8 0.00 0.00 0.00 96 1021.1
20260507043113 54 0 0.0 0.0 0.00 0.00 0.00 96 1021.0
20260507043103 54 0 0.0 0.0 0.00 0.00 0.00 96 1021.0
20260507042606 54 0 0.0 0.0 0.00 0.00 0.00 96 1021.0
20260507042547 54 0 0.0 0.0 0.00 0.00 0.00 96 1021.0
20260507042059 54 0 0.0 0.0 0.00 0.00 0.00 95 1021.0
20260507041552 54 0 0.0 0.0 0.00 0.00 0.00 95 1020.9
20260507041045 54 0 0.0 0.0 0.00 0.00 0.00 95 1021.0
20260507040955 54 0 0.0 0.0 0.00 0.00 0.00 95 1021.0
20260507040538 54 0 0.0 0.0 0.00 0.00 0.00 95 1020.9
20260507040438 54 0 0.0 0.0 0.00 0.00 0.00 95 1021.0
20260507040032 54 0 0.0 0.0 0.00 0.00 0.00 95 1020.9
20260507035921 54 0 0.0 0.0 0.00 0.00 0.00 95 1021.0
20260507035404 54 0 0.0 0.0 0.00 0.00 0.00 95 1020.9
20260507035018 54 0 0.0 0.0 0.00 0.00 0.00 95 1020.9
20260507034847 54 0 0.0 0.0 0.00 0.00 0.00 95 1020.9
20260507034330 54 0 0.0 0.0 0.00 0.00 0.00 95 1020.9
20260507034003 54 0 0.0 0.0 0.00 0.00 0.00 95 1020.9
20260507033813 54 0 0.0 0.0 0.00 0.00 0.00 95 1020.8
20260507033456 54 0 0.0 0.0 0.00 0.00 0.00 95 1020.9
20260507033256 54 0 0.0 0.0 0.00 0.00 0.00 95 1020.8
20260507032949 54 0 0.0 0.0 0.00 0.00 0.00 95 1020.9
20260507032739 54 0 0.0 0.0 0.00 0.00 0.00 95 1020.8
20260507032442 54 0 0.0 0.0 0.00 0.00 0.00 95 1020.8
20260507032223 54 0 0.0 0.0 0.00 0.00 0.00 95 1020.9
20260507031935 54 0 0.0 0.0 0.00 0.00 0.00 95 1020.9
20260507031705 54 0 0.0 0.0 0.00 0.00 0.00 94 1020.8
20260507031428 54 0 0.0 0.0 0.00 0.00 0.00 94 1020.8
20260507031148 54 0 0.0 0.0 0.00 0.00 0.00 94 1020.8
20260507030921 54 0 0.0 0.0 0.00 0.00 0.00 94 1020.8
20260507030631 54 0 0.0 0.0 0.00 0.00 0.00 94 1020.8
20260507030414 54 0 0.0 0.0 0.00 0.00 0.00 94 1020.8
20260507030114 54 0 0.0 0.0 0.00 0.00 0.00 94 1020.8
20260507025907 54 0 0.0 0.0 0.00 0.00 0.00 94 1020.7
20260507025557 54 0 0.0 0.0 0.00 0.00 0.00 94 1020.8
20260507025401 54 0 0.0 0.0 0.00 0.00 0.00 94 1020.7
20260507024853 54 0 0.0 0.0 0.00 0.00 0.00 93 1020.7
20260507024523 54 0 0.0 0.0 0.00 0.00 0.00 93 1020.7
20260507024346 54 0 0.0 0.0 0.00 0.00 0.00 93 1020.7
20260507024006 54 0 0.0 0.0 0.00 0.00 0.00 93 1020.7
20260507023839 54 0 0.0 0.0 0.00 0.00 0.00 93 1020.7
20260507023449 54 0 0.0 0.0 0.00 0.00 0.00 93 1020.7
20260507023332 54 0 0.0 0.0 0.00 0.00 0.00 93 1020.9
20260507022932 54 0 0.0 2.6 0.00 0.00 0.00 92 1020.9
20260507022825 54 0 0.0 2.6 0.00 0.00 0.00 92 1020.9
20260507022415 54 0 0.0 2.6 0.00 0.00 0.00 92 1020.9
20260507022318 54 0 0.0 2.6 0.00 0.00 0.00 92 1020.9
20260507021858 55 0 0.0 2.6 0.00 0.00 0.00 92 1020.9
20260507021811 55 0 0.0 2.6 0.00 0.00 0.00 92 1020.9
20260507021342 55 0 0.0 2.6 0.00 0.00 0.00 91 1020.8
20260507021304 55 0 0.0 2.6 0.00 0.00 0.00 91 1020.8
20260507020824 55 0 0.0 0.0 0.00 0.00 0.00 91 1020.9
20260507020757 55 0 0.0 0.0 0.00 0.00 0.00 91 1020.9
20260507020307 55 0 0.0 0.0 0.00 0.00 0.00 91 1020.9
20260507020250 55 0 0.0 0.0 0.00 0.00 0.00 91 1020.9
20260507015750 55 0 0.0 0.0 0.00 0.00 0.00 91 1020.9
20260507015743 55 0 0.0 0.0 0.00 0.00 0.00 91 1020.9
20260507015233 55 0 0.0 3.5 0.00 0.00 0.00 90 1020.9
20260507014729 55 0 0.0 3.5 0.00 0.00 0.00 90 1021.0
20260507014716 55 0 0.0 3.5 0.00 0.00 0.00 90 1021.0
20260507014222 55 0 0.0 3.5 0.00 0.00 0.00 90 1021.0
20260507014159 55 0 0.0 3.5 0.00 0.00 0.00 90 1021.0
20260507013715 55 322 1.7 3.5 0.00 0.00 0.00 90 1021.0
20260507013642 55 322 1.7 3.5 0.00 0.00 0.00 90 1021.0
20260507013208 55 0 0.0 0.0 0.00 0.00 0.00 90 1021.1
20260507013125 55 0 0.0 5.2 0.00 0.00 0.00 90 1021.1
20260507012701 55 0 0.0 5.2 0.00 0.00 0.00 90 1021.1
20260507012608 55 0 0.0 5.2 0.00 0.00 0.00 90 1021.1
20260507012154 55 343 1.7 5.2 0.00 0.00 0.00 90 1021.1
20260507012051 55 343 1.7 5.2 0.00 0.00 0.00 90 1021.2
20260507011647 55 341 2.6 5.2 0.00 0.00 0.00 89 1021.1
20260507011534 55 341 3.5 5.2 0.00 0.00 0.00 89 1021.2
20260507011017 56 319 0.9 3.5 0.00 0.00 0.00 90 1021.1
20260507010633 56 0 0.0 3.5 0.00 0.00 0.00 90 1021.2
20260507010500 56 0 0.0 3.5 0.00 0.00 0.00 90 1021.2
20260507010126 56 2 1.7 3.5 0.00 0.00 0.00 89 1021.2
20260507005943 56 2 1.7 3.5 0.00 0.00 0.00 89 1021.2
20260507005619 56 323 0.9 2.6 0.00 0.00 0.00 90 1021.2
20260507005426 56 323 0.9 2.6 0.00 0.00 0.00 90 1021.2
20260507004909 56 0 0.0 6.1 0.00 0.00 0.00 90 1021.2
20260507004605 56 0 0.0 6.1 0.00 0.00 0.00 90 1021.2
20260507004352 56 0 0.0 6.1 0.00 0.00 0.00 90 1021.2
20260507004058 56 0 0.0 6.1 0.00 0.00 0.00 90 1021.2
20260507003835 55 0 0.0 6.1 0.00 0.00 0.00 90 1021.1
20260507003551 55 0 0.0 6.1 0.00 0.00 0.00 90 1021.2
20260507003318 55 0 0.0 6.1 0.00 0.00 0.00 90 1021.3
20260507003044 55 292 3.5 5.2 0.00 0.00 0.00 90 1021.2
20260507002802 55 0 0.0 3.5 0.00 0.00 0.00 89 1021.2
20260507002537 55 330 0.9 3.5 0.00 0.00 0.00 89 1021.3
20260507002244 56 329 0.9 3.5 0.00 0.00 0.00 89 1021.3
20260507002031 56 329 0.9 3.5 0.00 0.00 0.00 90 1021.4
20260507001727 56 0 0.0 3.5 0.00 0.00 0.00 89 1021.3
20260507001523 56 0 0.0 3.5 0.00 0.00 0.00 89 1021.3
20260507001210 56 0 0.0 3.5 0.00 0.00 0.00 89 1021.3
20260507001016 56 0 0.0 3.5 0.00 0.00 0.00 89 1021.3
20260507000653 56 329 2.6 2.6 0.00 0.00 0.00 88 1021.4
20260507000509 56 0 0.0 0.0 0.00 0.00 0.00 88 1021.3
20260507000136 56 330 0.9 4.3 0.00 0.00 0.00 88 1021.4
20260507000002 56 0 0.0 4.3 0.00 0.00 0.00 88 1021.4
20260506235620 56 0 0.0 4.3 0.00 0.00 0.00 88 1021.4
20260506235455 56 0 0.0 4.3 0.00 0.00 0.00 88 1021.4
20260506235102 56 0 0.0 4.3 0.00 0.00 0.00 88 1021.5
20260506234948 56 0 0.0 4.3 0.00 0.00 0.00 88 1021.4
20260506234545 56 357 2.6 4.3 0.00 0.00 0.00 88 1021.5
20260506234441 56 319 1.7 3.5 0.00 0.00 0.00 87 1021.4
20260506234028 57 0 0.0 1.7 0.00 0.00 0.00 87 1021.4
20260506233934 57 0 0.0 1.7 0.00 0.00 0.00 87 1021.5
20260506233511 57 0 0.0 1.7 0.00 0.00 0.00 87 1021.5
20260506233427 57 0 0.0 1.7 0.00 0.00 0.00 87 1021.5
20260506232954 57 0 0.0 0.0 0.00 0.00 0.00 87 1021.6
20260506232920 57 0 0.0 0.0 0.00 0.00 0.00 87 1021.5
20260506232437 57 0 0.0 3.5 0.00 0.00 0.00 86 1021.5
20260506232413 57 0 0.0 3.5 0.00 0.00 0.00 86 1021.5
20260506231920 57 0 0.0 3.5 0.00 0.00 0.00 86 1021.5
20260506231906 57 0 0.0 3.5 0.00 0.00 0.00 86 1021.5
20260506231359 57 0 0.0 3.5 0.00 0.00 0.00 86 1021.6
20260506230852 57 0 0.0 0.0 0.00 0.00 0.00 87 1021.7
20260506230846 57 0 0.0 0.0 0.00 0.00 0.00 87 1021.7
20260506230345 57 0 0.0 4.3 0.00 0.00 0.00 87 1021.7
20260506230329 57 0 0.0 4.3 0.00 0.00 0.00 87 1021.7
20260506225838 57 0 0.0 4.3 0.00 0.00 0.00 86 1021.5
20260506225812 57 0 0.0 4.3 0.00 0.00 0.00 86 1021.5
20260506225331 57 0 0.0 4.3 0.00 0.00 0.00 86 1021.5
20260506225255 57 338 1.7 4.3 0.00 0.00 0.00 86 1021.5
20260506224824 57 0 0.0 4.3 0.00 0.00 0.00 86 1021.5
20260506224738 57 288 1.7 4.3 0.00 0.00 0.00 86 1021.5
20260506224317 57 266 1.7 3.5 0.00 0.00 0.00 86 1021.6
20260506224221 57 282 1.7 3.5 0.00 0.00 0.00 86 1021.6
20260506223810 57 0 0.0 3.5 0.00 0.00 0.00 86 1021.6
20260506223704 57 0 0.0 3.5 0.00 0.00 0.00 86 1021.6
20260506223303 57 0 0.0 3.5 0.00 0.00 0.00 86 1021.6
20260506223147 57 0 0.0 3.5 0.00 0.00 0.00 86 1021.6
20260506222756 57 0 0.0 3.5 0.00 0.00 0.00 86 1021.6
20260506222630 57 274 3.5 6.1 0.00 0.00 0.00 86 1021.6
20260506222249 57 277 2.6 6.1 0.00 0.00 0.00 86 1021.7
20260506222113 57 264 0.9 6.1 0.00 0.00 0.00 85 1021.7
20260506221743 57 277 2.6 6.1 0.00 0.00 0.00 85 1021.7
20260506221556 57 285 1.7 6.1 0.00 0.00 0.00 85 1021.7
20260506221235 57 260 2.6 6.1 0.00 0.00 0.00 85 1021.7
20260506221039 57 260 2.6 6.1 0.00 0.00 0.00 85 1021.8
20260506220728 57 267 1.7 4.3 0.00 0.00 0.00 85 1021.7
20260506220522 57 267 3.5 4.3 0.00 0.00 0.00 85 1021.8
20260506220221 57 281 1.7 4.3 0.00 0.00 0.00 85 1021.7
20260506220005 57 259 3.5 4.3 0.00 0.00 0.00 85 1021.8
20260506215714 57 284 2.6 5.2 0.00 0.00 0.00 85 1021.8
20260506215207 57 273 1.7 5.2 0.00 0.00 0.00 85 1021.7
20260506214931 57 273 1.7 5.2 0.00 0.00 0.00 85 1021.6
20260506214700 57 305 1.7 5.2 0.00 0.00 0.00 85 1021.8
20260506214414 58 305 1.7 5.2 0.00 0.00 0.00 85 1021.7
20260506214154 58 267 2.6 5.2 0.00 0.00 0.00 84 1021.7
20260506213857 58 0 0.0 0.0 0.00 0.00 0.00 84 1021.7
20260506213646 58 308 1.7 5.2 0.00 0.00 0.00 84 1021.7
20260506213340 58 0 0.0 5.2 0.00 0.00 0.00 84 1021.7
20260506213139 58 274 0.9 5.2 0.00 0.00 0.00 84 1021.7
20260506212823 58 274 2.6 5.2 0.00 0.00 0.00 84 1021.7
20260506212632 58 232 2.6 5.2 0.00 0.00 0.00 84 1021.7
20260506212307 58 0 0.0 5.2 0.00 0.00 0.00 84 1021.6
20260506212125 58 281 3.5 5.2 0.00 0.00 0.00 84 1021.7
20260506211749 58 295 1.7 4.3 0.00 0.00 0.00 84 1021.7
20260506211618 58 295 2.6 4.3 0.00 0.00 0.00 84 1021.5
20260506211232 58 273 1.7 4.3 0.00 0.00 0.00 84 1021.5
20260506211111 58 273 1.7 4.3 0.00 0.00 0.00 84 1021.5
20260506210715 58 310 1.7 4.3 0.00 0.00 0.00 84 1021.5
20260506210604 58 289 0.9 3.5 0.00 0.00 0.00 84 1021.5
20260506210158 58 260 1.7 3.5 0.00 0.00 0.00 84 1021.5
20260506210057 58 260 1.7 3.5 0.00 0.00 0.00 84 1021.6
20260506205641 58 257 1.7 3.5 0.00 0.00 0.00 84 1021.6
20260506205550 58 257 1.7 3.5 0.00 0.00 0.00 84 1021.6
20260506205124 58 281 1.7 5.2 0.00 0.00 0.00 84 1021.6
20260506205044 58 281 1.7 5.2 0.00 0.00 0.00 84 1021.7
20260506204536 58 0 0.0 5.2 0.00 0.00 0.00 84 1021.6
20260506204050 58 280 2.6 5.2 0.00 0.00 0.00 84 1021.7
20260506204029 58 280 3.5 5.2 0.00 0.00 0.00 84 1021.7
20260506203533 58 287 2.6 5.2 0.00 0.00 0.00 83 1021.6
20260506203522 58 287 4.3 5.2 0.00 0.00 0.00 83 1021.6
20260506203015 58 257 1.7 5.2 0.00 0.00 0.00 83 1021.6
20260506202459 58 259 2.6 5.2 0.00 0.00 0.00 83 1021.6
20260506202001 58 0 0.0 5.2 0.00 0.00 0.00 82 1021.6
20260506201942 58 0 0.0 5.2 0.00 0.00 0.00 82 1021.6
20260506201454 58 302 4.3 5.2 0.00 0.00 0.00 82 1021.5
20260506201425 58 0 0.0 5.2 0.00 0.00 0.00 82 1021.5
20260506200947 58 302 2.6 5.2 0.00 0.00 0.00 82 1021.4
20260506200908 58 246 0.9 5.2 0.00 0.00 0.00 82 1021.4
20260506200440 58 280 0.9 5.2 0.00 0.00 0.00 82 1021.4
20260506200351 58 280 2.6 5.2 0.00 0.00 0.00 81 1021.4
20260506195933 58 288 1.7 5.2 0.00 0.00 0.00 81 1021.4
20260506195834 58 254 2.6 5.2 0.00 0.00 0.00 81 1021.5
20260506195426 58 0 0.0 4.3 0.00 0.00 0.00 81 1021.5
20260506195317 58 0 0.0 4.3 0.00 0.00 0.00 81 1021.5
20260506194919 59 0 0.0 4.3 0.00 0.00 0.00 80 1021.4
20260506194800 59 340 1.7 4.3 0.00 0.00 0.00 80 1021.4
20260506194412 59 0 0.0 4.3 0.00 0.00 0.00 80 1021.4
20260506194243 59 309 1.7 4.3 0.00 0.00 0.00 80 1021.4
20260506193906 59 301 0.9 3.5 0.00 0.00 0.00 80 1021.4
20260506193726 59 301 1.7 3.5 0.00 0.00 0.00 80 1021.4
20260506193358 59 261 0.9 3.5 0.00 0.00 0.00 80 1021.4
20260506193209 59 0 0.0 2.6 0.00 0.00 0.00 80 1021.4
20260506192852 59 0 0.0 2.6 0.00 0.00 0.00 80 1021.4
20260506192135 59 271 0.9 3.5 0.00 0.00 0.00 81 1021.4
20260506191837 59 0 0.0 3.5 0.00 0.00 0.00 81 1021.4
20260506191618 59 0 0.0 3.5 0.00 0.00 0.00 81 1021.5
20260506191330 59 0 0.0 3.5 0.00 0.00 0.00 81 1021.5
20260506191101 59 291 0.9 3.5 0.00 0.00 0.00 81 1021.5
20260506190823 59 282 0.9 3.5 0.00 0.00 0.00 82 1021.5
20260506190544 59 284 2.6 3.5 0.00 0.00 0.00 82 1021.5
20260506190316 59 0 0.0 2.6 0.00 0.00 0.00 83 1021.5
20260506190027 58 259 0.9 2.6 0.00 0.00 0.00 82 1021.5
20260506185809 58 0 0.0 2.6 0.00 0.00 0.00 82 1021.4
20260506185510 58 214 0.9 1.7 0.00 0.00 0.00 82 1021.4
20260506185306 58 0 0.0 6.1 0.00 0.00 0.00 82 1021.5
20260506184953 58 0 0.0 6.1 0.00 0.00 0.00 82 1021.4
20260506184755 58 196 1.7 6.1 0.00 0.00 0.00 83 1021.4
20260506184436 58 196 1.7 6.1 0.00 0.00 0.00 83 1021.4
20260506184248 59 198 3.5 6.1 0.00 0.00 0.00 83 1021.4
20260506183919 58 191 2.6 6.1 0.00 0.00 0.00 84 1021.3
20260506183741 58 191 4.3 6.1 0.00 0.00 0.00 84 1021.3
20260506183402 58 187 4.3 6.1 0.00 0.00 0.00 84 1021.3
20260506183235 58 245 3.5 6.1 0.00 0.00 0.00 84 1021.2
20260506182845 58 0 0.0 6.1 0.00 0.00 0.00 85 1021.2
20260506182727 58 172 5.2 6.1 0.00 0.00 0.00 85 1021.2
20260506182328 58 194 5.2 5.2 0.00 0.00 0.00 85 1021.2
20260506182220 58 245 1.7 4.3 0.00 0.00 0.00 86 1021.1
20260506181811 58 250 1.7 4.3 0.00 0.00 0.00 86 1021.2
20260506181713 58 218 0.9 4.3 0.00 0.00 0.00 86 1021.2
20260506181254 57 200 1.7 4.3 0.00 0.00 0.00 87 1021.2
20260506181206 57 200 1.7 4.3 0.00 0.00 0.00 87 1021.1
20260506180737 57 0 0.0 0.0 0.00 0.00 0.00 87 1021.1
20260506180659 57 0 0.0 0.0 0.00 0.00 0.00 87 1021.1
20260506180220 57 305 0.9 3.5 0.00 0.00 0.00 88 1021.2
20260506180152 57 305 2.6 3.5 0.00 0.00 0.00 88 1021.2
20260506175703 56 0 0.0 3.5 0.00 0.00 0.00 89 1021.1
20260506175645 56 0 0.0 3.5 0.00 0.00 0.00 89 1021.1
20260506175145 56 0 0.0 3.5 0.00 0.00 0.00 89 1021.1
20260506175138 56 0 0.0 3.5 0.00 0.00 0.00 89 1021.1
20260506174629 56 288 2.6 2.6 0.00 0.00 0.00 88 1021.1
20260506174124 56 0 0.0 0.0 0.00 0.00 0.00 88 1021.1
20260506174112 56 0 0.0 0.0 0.00 0.00 0.00 88 1021.0
20260506173554 56 0 0.0 0.0 0.00 0.00 0.00 89 1021.0
20260506173110 56 0 0.0 0.0 0.00 0.00 0.00 88 1020.9
20260506173037 56 0 0.0 0.0 0.00 0.00 0.00 88 1020.9
20260506172603 56 247 0.9 3.5 0.00 0.00 0.00 88 1020.9
20260506172520 56 247 0.9 3.5 0.00 0.00 0.00 88 1020.9
20260506172056 56 0 0.0 3.5 0.00 0.00 0.00 87 1020.9
20260506172004 56 0 0.0 3.5 0.00 0.00 0.00 88 1020.9
20260506171549 56 0 0.0 3.5 0.00 0.00 0.00 88 1020.8
20260506171446 56 0 0.0 3.5 0.00 0.00 0.00 88 1020.9
20260506171041 56 0 0.0 1.7 0.00 0.00 0.00 88 1020.8
20260506170929 56 0 0.0 1.7 0.00 0.00 0.00 88 1020.8
20260506170535 56 0 0.0 1.7 0.00 0.00 0.00 88 1020.9
20260506170413 56 0 0.0 1.7 0.00 0.00 0.00 88 1020.9
20260506170028 56 306 0.9 1.7 0.00 0.00 0.00 88 1020.9
20260506165855 56 306 0.9 1.7 0.00 0.00 0.00 88 1020.8
20260506165521 56 0 0.0 0.0 0.00 0.00 0.00 89 1020.8
20260506165338 56 0 0.0 0.0 0.00 0.00 0.00 89 1020.7
20260506164821 56 0 0.0 0.0 0.00 0.00 0.00 89 1020.8
20260506164507 56 0 0.0 0.0 0.00 0.00 0.00 89 1020.8
20260506164305 55 0 0.0 0.0 0.00 0.00 0.00 89 1020.7
20260506163959 55 0 0.0 0.0 0.00 0.00 0.00 90 1020.6
20260506163747 55 0 0.0 0.0 0.00 0.00 0.00 90 1020.5
20260506163452 55 0 0.0 0.0 0.00 0.00 0.00 90 1020.7
20260506163230 55 0 0.0 0.0 0.00 0.00 0.00 90 1020.7
20260506162945 55 0 0.0 0.0 0.00 0.00 0.00 90 1020.7
20260506162713 55 0 0.0 0.0 0.00 0.00 0.00 90 1020.7
20260506161931 55 0 0.0 2.6 0.00 0.00 0.00 91 1020.6
20260506161639 55 0 0.0 2.6 0.00 0.00 0.00 91 1020.6
20260506161425 55 0 0.0 2.6 0.00 0.00 0.00 91 1020.6
20260506161122 55 306 0.9 2.6 0.00 0.00 0.00 91 1020.6
20260506160917 55 306 0.9 2.6 0.00 0.00 0.00 91 1020.6
20260506160605 55 0 0.0 0.0 0.00 0.00 0.00 91 1020.5
20260506160410 55 0 0.0 0.0 0.00 0.00 0.00 91 1020.4
20260506160048 55 0 0.0 0.0 0.00 0.00 0.00 91 1020.4
20260506155903 55 0 0.0 0.0 0.00 0.00 0.00 91 1020.4
20260506155531 55 0 0.0 0.0 0.00 0.00 0.00 91 1020.3
20260506155356 55 0 0.0 0.0 0.00 0.00 0.00 91 1020.3
20260506155015 55 0 0.0 0.0 0.00 0.00 0.00 91 1020.2
20260506154849 55 0 0.0 0.0 0.00 0.00 0.00 91 1020.3
20260506154458 54 0 0.0 0.0 0.00 0.00 0.00 92 1020.1
20260506154342 54 0 0.0 0.0 0.00 0.00 0.00 92 1020.2
20260506153940 54 0 0.0 0.0 0.00 0.00 0.00 92 1020.1
20260506153835 54 0 0.0 0.0 0.00 0.00 0.00 92 1020.1
20260506153423 54 0 0.0 0.0 0.00 0.00 0.00 92 1020.1
20260506153328 54 0 0.0 0.0 0.00 0.00 0.00 92 1020.1
20260506152906 54 0 0.0 0.0 0.00 0.00 0.00 93 1020.0
20260506152821 54 0 0.0 0.0 0.00 0.00 0.00 93 1020.0
20260506152349 54 0 0.0 0.0 0.00 0.00 0.00 93 1019.9
20260506152314 54 0 0.0 0.0 0.00 0.00 0.00 93 1020.0
20260506151834 54 0 0.0 4.3 0.00 0.00 0.00 93 1020.1
20260506151807 54 0 0.0 4.3 0.00 0.00 0.00 93 1020.1
20260506151315 54 0 0.0 4.3 0.00 0.00 0.00 93 1020.0
20260506151302 54 0 0.0 4.3 0.00 0.00 0.00 93 1020.0
20260506150753 54 0 0.0 4.3 0.00 0.00 0.00 94 1019.8
20260506150241 54 142 3.5 4.3 0.00 0.00 0.00 94 1019.7
20260506145739 54 0 0.0 0.0 0.00 0.00 0.00 94 1019.9
20260506145724 54 0 0.0 0.0 0.00 0.00 0.00 94 1020.0
20260506145207 54 0 0.0 0.0 0.00 0.00 0.00 94 1020.0
20260506144725 54 0 0.0 0.0 0.00 0.00 0.00 94 1020.0
20260506144651 54 0 0.0 0.0 0.00 0.00 0.00 94 1020.0
20260506144218 54 0 0.0 0.0 0.00 0.00 0.00 94 1020.2
20260506144133 53 0 0.0 0.0 0.00 0.00 0.00 94 1020.2
20260506143711 53 0 0.0 0.0 0.00 0.00 0.00 94 1020.1
20260506143617 53 0 0.0 0.0 0.00 0.00 0.00 94 1020.1
20260506143205 53 0 0.0 0.0 0.00 0.00 0.00 94 1020.1
20260506143059 53 0 0.0 0.0 0.00 0.00 0.00 94 1020.1
20260506142657 53 0 0.0 0.0 0.00 0.00 0.00 94 1020.0
20260506142543 53 0 0.0 0.0 0.00 0.00 0.00 94 1020.0
20260506142150 53 0 0.0 0.0 0.00 0.00 0.00 94 1020.0
20260506142025 53 0 0.0 0.0 0.00 0.00 0.00 94 1020.0
20260506141643 53 0 0.0 0.0 0.00 0.00 0.00 94 1020.1
20260506141508 53 0 0.0 0.0 0.00 0.00 0.00 94 1020.1
20260506141136 53 0 0.0 0.0 0.00 0.00 0.00 94 1020.1
20260506140951 53 0 0.0 0.0 0.00 0.00 0.00 94 1019.9
20260506140629 53 0 0.0 0.0 0.00 0.00 0.00 94 1019.9
20260506140434 53 0 0.0 0.0 0.00 0.00 0.00 94 1019.8
20260506140122 53 0 0.0 0.0 0.00 0.00 0.00 94 1019.8
20260506135917 53 0 0.0 0.0 0.00 0.00 0.00 94 1019.7
20260506135615 53 0 0.0 0.0 0.00 0.00 0.00 94 1019.5
20260506135400 53 0 0.0 0.0 0.00 0.00 0.00 94 1019.5
20260506135108 53 0 0.0 0.0 0.00 0.00 0.00 94 1019.5
20260506134843 53 0 0.0 0.0 0.00 0.00 0.00 94 1019.5
20260506134601 53 0 0.0 0.0 0.00 0.00 0.00 94 1019.5
20260506134326 53 0 0.0 0.0 0.00 0.00 0.00 94 1019.5
20260506134054 53 0 0.0 0.0 0.00 0.00 0.00 94 1019.4
20260506133809 53 0 0.0 1.7 0.00 0.00 0.00 94 1019.4
20260506133547 53 0 0.0 1.7 0.00 0.00 0.00 94 1019.3
20260506133252 53 0 0.0 1.7 0.00 0.00 0.00 94 1019.2
20260506133040 53 0 0.0 1.7 0.00 0.00 0.00 94 1019.2
20260506132735 53 0 0.0 1.7 0.00 0.00 0.00 94 1019.3
20260506132533 53 0 0.0 1.7 0.00 0.00 0.00 94 1019.3
20260506132218 53 326 0.9 1.7 0.00 0.00 0.00 94 1019.4
20260506132026 53 0 0.0 0.0 0.00 0.00 0.00 94 1019.4
20260506131701 53 0 0.0 0.0 0.00 0.00 0.00 94 1019.4
20260506131144 53 0 0.0 0.0 0.00 0.00 0.00 94 1019.3
20260506130627 53 0 0.0 0.0 0.00 0.00 0.00 94 1019.1
20260506130505 53 0 0.0 0.0 0.00 0.00 0.00 94 1019.1
20260506125958 53 0 0.0 0.0 0.00 0.00 0.00 94 1019.1
20260506125553 53 0 0.0 0.0 0.00 0.00 0.00 94 1019.0
20260506125036 53 0 0.0 0.0 0.00 0.00 0.00 94 1019.1
20260506124944 53 0 0.0 0.0 0.00 0.00 0.00 94 1019.0
20260506124440 53 0 0.0 0.0 0.00 0.00 0.00 94 1019.0
20260506124002 53 0 0.0 0.0 0.00 0.00 0.00 94 1019.0
20260506123930 53 0 0.0 0.0 0.00 0.00 0.00 94 1019.0
20260506123423 53 0 0.0 0.0 0.00 0.00 0.00 95 1018.9
20260506122928 53 0 0.0 0.0 0.00 0.00 0.00 95 1018.9
20260506122917 53 0 0.0 0.0 0.00 0.00 0.00 95 1018.8
20260506122409 53 0 0.0 0.0 0.00 0.00 0.00 95 1018.8
20260506121902 53 0 0.0 0.0 0.00 0.00 0.00 95 1018.9
20260506121854 53 0 0.0 0.0 0.00 0.00 0.00 95 1018.9
20260506121355 53 0 0.0 0.0 0.00 0.00 0.00 95 1018.9
20260506121337 53 0 0.0 0.0 0.00 0.00 0.00 95 1018.9
20260506120848 53 0 0.0 0.0 0.00 0.00 0.00 95 1018.8
20260506120820 53 0 0.0 0.0 0.00 0.00 0.00 95 1018.8
20260506120341 53 0 0.0 0.0 0.00 0.00 0.00 95 1018.8
20260506120303 53 0 0.0 0.0 0.00 0.00 0.00 95 1019.0
20260506115746 53 0 0.0 0.0 0.00 0.00 0.00 95 1018.9
20260506115327 53 0 0.0 0.0 0.00 0.00 0.00 95 1019.0
20260506114820 53 0 0.0 0.0 0.00 0.00 0.00 95 1019.0
20260506114712 53 0 0.0 0.0 0.00 0.00 0.00 95 1019.0
20260506114313 53 0 0.0 0.0 0.00 0.00 0.00 95 1018.9
20260506114155 53 0 0.0 0.0 0.00 0.00 0.00 95 1018.9
20260506113806 53 0 0.0 0.0 0.00 0.00 0.00 95 1018.8
20260506113638 53 0 0.0 0.0 0.00 0.00 0.00 95 1018.7
20260506113300 53 0 0.0 0.0 0.00 0.00 0.00 95 1018.7
20260506113121 53 0 0.0 0.0 0.00 0.00 0.00 95 1018.7
20260506112752 53 0 0.0 0.0 0.00 0.00 0.00 95 1018.7
20260506112604 53 0 0.0 0.0 0.00 0.00 0.00 95 1018.7
20260506112245 53 0 0.0 0.0 0.00 0.00 0.00 95 1018.7